H-2A R/B

Satellite information

Favourite Embed

Satellite Type and Status

ROCKET BODYIN ORBIT

Key statistics

Satellite H-2A R/B at a glance.

Uptime

2602

Days in orbit

Revolutions

≈ 15.4

Per day

Orbit

SSO

Sun Synchronous Orbit

Inclination

98.9

Latest

Satellite identification and parameters

Extended collection of information and parameters for H-2A R/B.

Object identification

Identified? True

Debris? False

Object name: H-2A R/B

International designator: 2018-084L

Object number (NORAD): 43682

Object ID (CCSDS): 43682

Country: JAPAN (JPN)

Current information (Y/N): Y

RCS size: LARGE

Orbital parameters

Period: 93.669 minutes

Inclination: 98.8778 deg

SMA: 6832.135 km

Apoapsis: 472.71 km

Periapsis: 435.29 km

RAAN: 180.0543 deg

Eccentricy: 0.00273854

Argument of periapsis: 328.7286 deg

Mean anomaly: 31.2324 deg

Mean motion: 15.37333436 rev/day

Mean motion (dot): 0.0002442 rev/day2

B* drag term: 0.0006606851 1/REarth

Two-line elements (TLE)

Creation date: Dec. 12, 2025, 10:14 a.m.

Reference frame: TEME

Reference center: EARTH

Epoch: Dec. 12, 2025, 2:33 a.m. UTC

TLE line 0: 0 H-2A R/B

TLE line 1: 1 43682U 18084L 25346.10670325 .00024420 00000-0 66069-3 0 9990

TLE line 2: 2 43682 98.8778 180.0543 0027385 328.7286 31.2324 15.37333436392304

Live tracking on map

Real-time ground track for satellite H-2A R/B.

In-orbit conjunctions

A list of the most updated potential collisions computed for object H-2A R/B.

Target Orbit TCA Probability of collision Miss distance Type
COSMOS 807 LEO 2025-02-12 21:51:47 0.0002469198 82.0 (m) PAYLOAD
COSMOS 2251 DEB LEO 2024-11-15 01:10:57 0.0002060449 194.0 (m) DEBRIS
COSMOS 2251 DEB LEO 2024-09-18 06:07:08 0.000168755 45.0 (m) DEBRIS

Associated space launch

KhalifaSat is an Earth observation satellite for UAE. KhalifaSat will provide high-resolution imagery of Earth to be used for various purposes, including urban planning, change monitoring, area classification, monitoring environmental change and aiding relief efforts for natural disasters. GOSAT 2 (Greenhouse gases Observing SATellite 2) is a Japanese satellite dedicated to greenhouse gas measurement from space. It's a follow on to the GOSAT mission and includes such improvements as an ability to gather more precise data and monitor carbon monoxide concentrations.

H-2A R/B was lifted into orbit during the mission ‘H-IIA 202 | KhalifaSat & GOSAT-2’, on board a H-IIA space rocket.

The launch took place on Oct. 29, 2018, 4:08 a.m. from Yoshinobu Launch Complex LP-1.

For more information about the launch, click the button.

Launch to space H-IIA 202 | KhalifaSat & GOSAT-2
H-IIA 202 | KhalifaSat & GOSAT-2

Agency: N/A

Status: Launch Successful

Launch date: Oct. 29, 2018, 4:08 a.m. UTC

Rocket: H-IIA

Launch pad: Yoshinobu Launch Complex LP-1

Location: Tanegashima Space Center, Japan

...

Latest news about this satellite

News about space launch
Japan Launches UAE's KhalifaSat and Climate-Monitoring Satellite Into Orbit


Newsletter sign-up

Weekly statistics, charts and insights to help you stay on top of the space industry.